カタログに戻る

IRS 1A

運用中科学SSO
NORAD 18960·PAYLOAD·🇮🇳 India

打ち上げ Mar 17, 1988 から Baikonur Cosmodrome

Loading…

次のパス (今後24時間)

TLE

最新Source: Space-Track

元期: Sep 14, 2026, 03:17 UTC

1 18960U 88021A   26257.13749655  .00000093  00000-0  96381-4 0  9998
2 18960  98.8412 308.5090 0013527 327.0897  56.9694 13.97178077865599

AllMySatでIRS 1Aをリアルタイム追跡

Download on the App Store